sat.trackr.live / text

‹ back to catalog

PANDORE

NORAD 63244 · 2025-052AL

PAYLOAD ACTIVE UNKNOWN

§ Identity

Operator
Country
FR
Launch date
2025-03-15
Launch site
AFWTR
Launch vehicle
Mass (kg)
RCS (m²)

External: N2YO · Heavens-Above · Gunter

§ Orbital elements

Epoch: 2026-09-22T22:11:15.121248Z

Period
96.29 min
Inclination
97.6752°
Eccentricity
0.0003398
Mean motion
14.95420001 rev/d
Perigee alt
578.7 km
Apogee alt
583.4 km
Semi-major
6,959.2 km
B*
1.6856e-4
RAAN
155.3213°
Arg perigee
214.7653°
Mean anomaly
145.3347°
Rev number
8,321

§ Raw data

PANDORE1 63244U 25052AL  26265.92448057  .00001806  00000+0  16856-3 0  99962 63244  97.6752 155.3213 0003398 214.7653 145.3347 14.95420001 83215

JSON: /api/v1/satellites/63244 · /tle

For live sub-satellite position, see the globe view (requires WebGL).

§ Visibility from observer

Set your observer location to see the next 7 days of passes ≥ 10°. The values pass through the URL so the page stays shareable.

No JS? Fill the form by hand. The geolocation button needs JavaScript.